星链-4640 (STARLINK-4640 )

导读

STARLINK-4640是美国SpaceX公司星链项目的低轨通信卫星,于2022年9月5日发射升空,属于星链第二代星座中的V1.5型卫星。它配备激光星间链路模块,可实现卫星间直接通信,降低对地面基站的依赖,助力构建全球覆盖的高速宽带网络,为偏远地区、海洋等区域提供互联网接入服务,是目前星链星座中占比最高的卫星型号之一。

基本信息
目录编号:
53728
目录名称:
STARLINK-4640
国际标识:
2022-107AE
轨道中心:
EARTH
卫星名称:
星链-4640
卫星全名:
星链-4640 (STARLINK-4640 )
卫星状态:
在轨 (已飞行1381 天)
发射日期:
2022-09-05 UTC
国别 :
美国 (US)
星等 :
--
轨道信息
数据来源 国际轨道数据 AOE轨道数据
星历时间 2026-06-16T15:36:45+0800
1天前
查看轨道信息
2026-06-14T00:00:00+0800
3天前
查看轨道信息
半长轴 6917.971km 6917.878km
偏心率 0.0001146 0.0002055
轨道倾角 53.160° 53.159°
近地点辐角 65.171° 151.273°
升交点赤经 171.227° 183.141°
平近点角 294.940° 204.036°
近地点 539.041km 538.319km
远地点 540.627km 541.163km
周期 95.439分钟 95.437分钟
每日圈数 15.088104 15.08841
详细信息
固有亮度:
5
最大亮度:
2.5
卫星平台:
Starlink v1.5
覆盖范围:
全球
运营商:
太空探索技术公司
运营商所在国:
美国
制造商(研发单位):
太空探索技术公司
制造商所在国:
美国
使用方式:
暂无
卫星简介
星链(Starlink)计划是由太空探索技术公司(SpaceX)提出的一个巨型低轨卫星互联网星座项目,计划在2019年至2024年间在太空搭建由约1.2万颗卫星组成的“星链”网络,其中1584颗将部署在地球上空550千米处的近地轨道,并从2020年开始工作。该卫星仍在工作。
2D轨道图
3D轨道图
轨道高度分析图
轨道倾角分析图
轨道综合分析图
查看轨道综合分析图